Timestamp, Local Timestamp, ID, PM25, PM10, Co2, Temperature, Relative Humidity, Monitor ID, O3
2020-12-01T17:45:09Z,12/01/20 12:45,4983535,0.24900000000000003,0.003,1161,22.0,43.5,75,0.0
2020-12-01T17:46:09Z,12/01/20 12:46,4983528,0.23900000000000002,0.001,1182,22.1,43.5,75,0.0
2020-12-01T17:47:09Z,12/01/20 12:47,4983538,0.185,0.001,1177,22.2,43.4,75,0.0
2020-12-01T17:48:09Z,12/01/20 12:48,4983543,0.123,0.0,1168,22.3,43.4,75,0.0
2020-12-01T17:49:09Z,12/01/20 12:49,4983548,0.8480000000000001,0.001,1178,22.3,43.3,75,0.0
2020-12-01T17:50:09Z,12/01/20 12:50,4983553,12.787,0.002,1175,22.4,43.3,75,0.0
2020-12-01T17:51:09Z,12/01/20 12:51,4983558,13.638,0.0,1167,22.5,43.2,75,0.0
2020-12-01T17:52:09Z,12/01/20 12:52,4983563,7.901000000000001,0.001,1162,22.6,43.2,75,0.0
2020-12-01T17:53:09Z,12/01/20 12:53,4983568,4.89,0.0,1168,22.6,43.2,75,0.0
2020-12-01T17:54:09Z,12/01/20 12:54,4983573,3.564,0.0,1164,22.6,43.1,75,0.0
2020-12-01T17:55:09Z,12/01/20 12:55,4983578,2.7809999999999997,0.0,1157,22.7,43.0,75,0.0
2020-12-01T17:56:09Z,12/01/20 12:56,4983583,2.04,0.0,1154,22.8,43.0,75,0.0
2020-12-01T17:57:09Z,12/01/20 12:57,4983588,1.158,0.0,1152,22.8,42.9,75,0.0
2020-12-01T17:58:09Z,12/01/20 12:58,4983593,0.275,0.001,1154,22.9,42.9,75,0.0
2020-12-01T17:59:09Z,12/01/20 12:59,4983598,0.101,0.001,1152,22.9,42.8,75,0.0
2020-12-01T18:00:09Z,12/01/20 13:00,4983603,0.081,0.0,1151,23.0,42.8,75,0.0
2020-12-01T18:01:09Z,12/01/20 13:01,4983608,0.099,0.0,1155,23.0,42.8,75,0.0
2020-12-01T18:02:09Z,12/01/20 13:02,4983613,0.126,0.0,1149,23.1,42.8,75,0.0
2020-12-01T18:03:09Z,12/01/20 13:03,4983618,0.12,0.0,1151,23.1,42.8,75,0.0
2020-12-01T18:04:09Z,12/01/20 13:04,4983623,0.092,0.001,1149,23.1,42.7,75,0.0
2020-12-01T18:05:09Z,12/01/20 13:05,4983628,0.125,0.001,1144,23.2,42.7,75,0.0
2020-12-01T18:06:09Z,12/01/20 13:06,4983633,0.162,0.0,1147,23.2,42.6,75,0.0
2020-12-01T18:07:09Z,12/01/20 13:07,4983639,0.066,0.0,1150,23.2,42.6,75,0.0
2020-12-01T18:08:09Z,12/01/20 13:08,4983643,0.11399999999999999,0.0,1150,23.3,42.5,75,0.0
2020-12-01T18:09:09Z,12/01/20 13:09,4983648,0.126,0.0,1145,23.3,42.5,75,0.0
2020-12-01T18:10:09Z,12/01/20 13:10,4983653,0.087,0.0,1126,23.3,42.5,75,0.0
2020-12-01T18:11:09Z,12/01/20 13:11,4983658,0.177,0.0,1108,23.3,42.3,75,0.0
2020-12-01T18:12:09Z,12/01/20 13:12,4983664,0.086,0.001,1110,23.3,42.3,75,0.0
2020-12-01T18:13:09Z,12/01/20 13:13,4983668,0.081,0.0,1101,23.4,42.3,75,0.0
2020-12-01T18:14:09Z,12/01/20 13:14,4983673,0.20600000000000002,0.001,1103,23.4,42.2,75,0.0
2020-12-01T18:15:09Z,12/01/20 13:15,4983678,0.15,0.0,1109,23.4,42.2,75,0.0
2020-12-01T18:16:09Z,12/01/20 13:16,4983683,0.16799999999999998,0.0,1105,23.4,42.2,75,0.0
2020-12-01T18:17:09Z,12/01/20 13:17,4983688,0.13799999999999998,0.0,1099,23.5,42.2,75,0.0
2020-12-01T18:18:09Z,12/01/20 13:18,4983693,0.179,0.001,1103,23.5,42.1,75,0.0
2020-12-01T18:19:09Z,12/01/20 13:19,4983698,0.22200000000000003,0.0,1092,23.5,42.1,75,0.0
2020-12-01T18:20:09Z,12/01/20 13:20,4983703,0.192,0.0,1098,23.5,42.0,75,0.0
2020-12-01T18:21:09Z,12/01/20 13:21,4983708,0.197,0.001,1096,23.5,42.0,75,0.0
2020-12-01T18:22:09Z,12/01/20 13:22,4983713,0.264,0.0,1098,23.5,42.0,75,0.0
2020-12-01T18:23:09Z,12/01/20 13:23,4983718,0.258,0.0,1094,23.5,41.9,75,0.0
2020-12-01T18:24:09Z,12/01/20 13:24,4983723,0.44400000000000006,0.0,1103,23.5,41.9,75,0.0
2020-12-01T18:25:09Z,12/01/20 13:25,4983729,0.16699999999999998,0.001,1100,23.6,41.9,75,0.0
2020-12-01T18:26:09Z,12/01/20 13:26,4983733,0.33199999999999996,0.001,1086,23.6,41.9,75,0.0
2020-12-01T18:27:09Z,12/01/20 13:27,4983738,0.21600000000000003,0.0,1093,23.6,41.9,75,0.0
2020-12-01T18:28:09Z,12/01/20 13:28,4983743,0.21400000000000002,0.002,1097,23.6,41.9,75,0.0
2020-12-01T18:29:09Z,12/01/20 13:29,4983748,0.255,0.0,1099,23.6,41.9,75,0.0
2020-12-01T18:30:09Z,12/01/20 13:30,4983753,0.351,0.0,1102,23.6,41.9,75,0.0
2020-12-01T18:31:09Z,12/01/20 13:31,4983758,0.16499999999999998,0.0,1108,23.6,41.9,75,0.0
2020-12-01T18:32:09Z,12/01/20 13:32,4983763,0.264,0.0,1099,23.6,41.8,75,0.0
2020-12-01T18:33:09Z,12/01/20 13:33,4983768,0.257,0.001,1099,23.6,41.8,75,0.0
2020-12-01T18:34:09Z,12/01/20 13:34,4983773,0.252,0.0,1102,23.6,41.8,75,0.0
2020-12-01T18:35:09Z,12/01/20 13:35,4983778,0.174,0.0,1093,23.6,41.8,75,0.0
2020-12-01T18:36:09Z,12/01/20 13:36,4983783,0.24,0.0,1084,23.6,41.7,75,0.0
2020-12-01T18:37:09Z,12/01/20 13:37,4983788,0.186,0.0,1082,23.6,41.7,75,0.0
2020-12-01T18:38:09Z,12/01/20 13:38,4983793,0.24500000000000002,0.001,1073,23.6,41.7,75,0.0
2020-12-01T18:39:09Z,12/01/20 13:39,4983798,0.192,0.0,1071,23.6,41.7,75,0.0
2020-12-01T18:40:09Z,12/01/20 13:40,4983803,0.264,0.0,1073,23.6,41.7,75,0.0
2020-12-01T18:41:09Z,12/01/20 13:41,4983808,0.219,0.0,1067,23.6,41.7,75,0.0
2020-12-01T18:42:09Z,12/01/20 13:42,4983813,0.177,0.0,1060,23.6,41.7,75,0.0
2020-12-01T18:43:09Z,12/01/20 13:43,4983818,0.27,0.0,1073,23.6,41.7,75,0.0
2020-12-01T18:44:09Z,12/01/20 13:44,4983823,0.21000000000000002,0.0,1062,23.6,41.7,75,0.0
2020-12-01T18:45:09Z,12/01/20 13:45,4983828,0.192,0.0,1058,23.6,41.6,75,0.0
2020-12-01T18:46:09Z,12/01/20 13:46,4983833,0.209,0.001,1067,23.6,41.6,75,0.0
2020-12-01T18:47:09Z,12/01/20 13:47,4983838,0.28500000000000003,0.0,1062,23.6,41.6,75,0.0
2020-12-01T18:48:09Z,12/01/20 13:48,4983843,0.18,0.0,1073,23.6,41.6,75,0.0
2020-12-01T18:49:09Z,12/01/20 13:49,4983848,0.264,0.0,1067,23.6,41.6,75,0.0
2020-12-01T18:50:09Z,12/01/20 13:50,4983853,0.306,0.0,1062,23.6,41.6,75,0.0
2020-12-01T18:51:09Z,12/01/20 13:51,4983858,0.318,0.0,1062,23.6,41.6,75,0.0
2020-12-01T18:52:09Z,12/01/20 13:52,4983863,0.40499999999999997,0.0,1058,23.6,41.5,75,0.0
2020-12-01T18:53:09Z,12/01/20 13:53,4983868,0.359,0.001,1060,23.6,41.5,75,0.0
2020-12-01T18:54:09Z,12/01/20 13:54,4983873,0.374,0.001,1055,23.6,41.5,75,0.0
2020-12-01T18:55:09Z,12/01/20 13:55,4983878,0.23399999999999999,0.0,1051,23.6,41.5,75,0.0
2020-12-01T18:56:09Z,12/01/20 13:56,4983883,0.375,0.0,1058,23.6,41.4,75,0.0
2020-12-01T18:57:09Z,12/01/20 13:57,4983888,0.312,0.0,1051,23.6,41.4,75,0.0
2020-12-01T18:58:09Z,12/01/20 13:58,4983893,0.389,0.001,1060,23.6,41.4,75,0.0
2020-12-01T18:59:09Z,12/01/20 13:59,4983898,0.549,0.0,1055,23.6,41.4,75,0.0
2020-12-01T19:00:09Z,12/01/20 14:00,4983903,0.366,0.0,1062,23.6,41.4,75,0.0
2020-12-01T19:01:09Z,12/01/20 14:01,4983908,0.525,0.0,1057,23.6,41.4,75,0.0
2020-12-01T19:02:09Z,12/01/20 14:02,4983913,0.366,0.0,1053,23.6,41.4,75,0.0
2020-12-01T19:03:09Z,12/01/20 14:03,4983918,0.40499999999999997,0.0,1041,23.6,41.4,75,0.0
2020-12-01T19:04:09Z,12/01/20 14:04,4983923,0.48600000000000004,0.0,1028,23.6,41.4,75,0.0
2020-12-01T19:05:09Z,12/01/20 14:05,4983928,0.368,0.001,1017,23.6,41.4,75,0.0
2020-12-01T19:06:09Z,12/01/20 14:06,4983933,0.375,0.0,1014,23.6,41.4,75,0.0
2020-12-01T19:07:09Z,12/01/20 14:07,4983938,0.21200000000000002,0.001,1023,23.6,41.4,75,0.0
2020-12-01T19:08:09Z,12/01/20 14:08,4983944,0.44400000000000006,0.0,1024,23.6,41.4,75,0.0
2020-12-01T19:09:09Z,12/01/20 14:09,4983949,0.333,0.0,1019,23.6,41.4,75,0.0
2020-12-01T19:10:09Z,12/01/20 14:10,4983953,0.368,0.001,1009,23.6,41.4,75,0.0
2020-12-01T19:11:09Z,12/01/20 14:11,4983958,0.221,0.001,1010,23.6,41.4,75,0.0
2020-12-01T19:12:09Z,12/01/20 14:12,4983963,0.282,0.0,1010,23.6,41.3,75,0.0
2020-12-01T19:13:09Z,12/01/20 14:13,4983968,0.27599999999999997,0.0,1010,23.6,41.3,75,0.0
2020-12-01T19:14:09Z,12/01/20 14:14,4983973,0.292,0.002,1010,23.6,41.3,75,0.0
2020-12-01T19:15:09Z,12/01/20 14:15,4983978,0.275,0.001,998,23.6,41.3,75,0.0
2020-12-01T19:16:09Z,12/01/20 14:16,4983983,0.17099999999999999,0.0,1007,23.6,41.3,75,0.0
2020-12-01T19:17:09Z,12/01/20 14:17,4983988,0.261,0.0,1000,23.6,41.3,75,0.0
2020-12-01T19:18:09Z,12/01/20 14:18,4983993,0.186,0.0,1003,23.6,41.3,75,0.0
2020-12-01T19:19:09Z,12/01/20 14:19,4983998,0.197,0.001,1008,23.6,41.3,75,0.0
2020-12-01T19:20:09Z,12/01/20 14:20,4984003,0.162,0.0,1005,23.6,41.3,75,0.0
2020-12-01T19:21:09Z,12/01/20 14:21,4984008,0.27,0.0,996,23.6,41.3,75,0.0
2020-12-01T19:22:09Z,12/01/20 14:22,4984013,0.296,0.001,991,23.5,41.3,75,0.0
2020-12-01T19:23:09Z,12/01/20 14:23,4984018,0.252,0.0,990,23.5,41.3,75,0.0
2020-12-01T19:24:09Z,12/01/20 14:24,4984023,0.261,0.0,992,23.5,41.3,75,0.0
2020-12-01T19:25:09Z,12/01/20 14:25,4984028,0.246,0.0,994,23.5,41.3,75,0.0
2020-12-01T19:26:09Z,12/01/20 14:26,4984033,0.23700000000000002,0.0,992,23.5,41.3,75,0.0
2020-12-01T19:27:09Z,12/01/20 14:27,4984038,0.215,0.001,990,23.5,41.3,75,0.0
2020-12-01T19:28:09Z,12/01/20 14:28,4984043,0.317,0.001,995,23.5,41.3,75,0.0
2020-12-01T19:29:09Z,12/01/20 14:29,4984048,0.327,0.0,990,23.5,41.3,75,0.0
2020-12-01T19:30:09Z,12/01/20 14:30,4984053,0.29100000000000004,0.0,995,23.5,41.3,75,0.0
2020-12-01T19:31:09Z,12/01/20 14:31,4984058,0.288,0.0,983,23.5,41.3,75,0.0
2020-12-01T19:32:09Z,12/01/20 14:32,4984063,0.34199999999999997,0.0,985,23.5,41.3,75,0.0
2020-12-01T19:33:09Z,12/01/20 14:33,4984068,0.246,0.0,983,23.5,41.3,75,0.0
2020-12-01T19:34:09Z,12/01/20 14:34,4984073,0.246,0.0,985,23.5,41.3,75,0.0
2020-12-01T19:35:09Z,12/01/20 14:35,4984078,0.23700000000000002,0.0,985,23.5,41.3,75,0.0
2020-12-01T19:36:09Z,12/01/20 14:36,4984083,0.288,0.0,978,23.5,41.3,75,0.0
2020-12-01T19:37:09Z,12/01/20 14:37,4984088,0.17099999999999999,0.0,983,23.5,41.3,75,0.0
2020-12-01T19:38:09Z,12/01/20 14:38,4984093,0.273,0.0,987,23.4,41.3,75,0.0
2020-12-01T19:39:09Z,12/01/20 14:39,4984099,0.251,0.001,990,23.4,41.3,75,0.0
2020-12-01T19:40:09Z,12/01/20 14:40,4984103,0.213,0.0,980,23.4,41.3,75,0.0
2020-12-01T19:41:09Z,12/01/20 14:41,4984108,0.195,0.0,978,23.4,41.3,75,0.0
2020-12-01T19:42:09Z,12/01/20 14:42,4984113,0.10800000000000001,0.0,988,23.4,41.4,75,0.0
2020-12-01T19:43:09Z,12/01/20 14:43,4984118,0.16699999999999998,0.001,988,23.4,41.4,75,0.0
2020-12-01T19:44:09Z,12/01/20 14:44,4984123,0.132,0.0,980,23.4,41.3,75,0.0
2020-12-01T19:45:09Z,12/01/20 14:45,4984129,0.22400000000000003,0.001,983,23.4,41.3,75,0.0
2020-12-01T19:46:09Z,12/01/20 14:46,4984133,0.156,0.0,983,23.4,41.3,75,0.0
2020-12-01T19:47:09Z,12/01/20 14:47,4984138,0.159,0.0,978,23.4,41.3,75,0.0
2020-12-01T19:48:09Z,12/01/20 14:48,4984143,0.173,0.001,985,23.4,41.4,75,0.0
2020-12-01T19:49:08Z,12/01/20 14:49,4984148,0.15,0.0,980,23.4,41.4,75,0.0
2020-12-01T19:50:08Z,12/01/20 14:50,4984153,0.257,0.001,976,23.4,41.4,75,0.0
2020-12-01T19:51:08Z,12/01/20 14:51,4984159,0.279,0.0,976,23.4,41.4,75,0.0
2020-12-01T19:52:08Z,12/01/20 14:52,4984163,0.221,0.001,980,23.4,41.4,75,0.0
2020-12-01T19:53:08Z,12/01/20 14:53,4984168,0.134,0.001,978,23.4,41.4,75,0.0
2020-12-01T19:54:08Z,12/01/20 14:54,4984173,0.174,0.0,973,23.4,41.4,75,0.0
2020-12-01T19:55:09Z,12/01/20 14:55,4984178,0.48,0.0,976,23.4,41.4,75,0.0
2020-12-01T19:56:09Z,12/01/20 14:56,4984184,0.9289999999999999,0.001,981,23.4,41.4,75,0.0
2020-12-01T19:57:09Z,12/01/20 14:57,4984188,0.738,0.0,969,23.4,41.4,75,0.0
2020-12-01T19:58:08Z,12/01/20 14:58,4984193,0.735,0.0,971,23.4,41.4,75,0.0
2020-12-01T19:59:08Z,12/01/20 14:59,4984198,0.54,0.0,969,23.4,41.4,75,0.0
2020-12-01T20:00:08Z,12/01/20 15:00,4984203,0.579,0.0,974,23.4,41.4,75,0.0
2020-12-01T20:01:08Z,12/01/20 15:01,4984208,0.5309999999999999,0.0,969,23.4,41.4,75,0.0
2020-12-01T20:02:08Z,12/01/20 15:02,4984213,0.554,0.001,964,23.4,41.4,75,0.0
2020-12-01T20:03:08Z,12/01/20 15:03,4984218,0.333,0.0,971,23.4,41.4,75,0.0
2020-12-01T20:04:08Z,12/01/20 15:04,4984223,0.22799999999999998,0.0,976,23.4,41.4,75,0.0
2020-12-01T20:05:08Z,12/01/20 15:05,4984228,0.18,0.0,971,23.4,41.3,75,0.0
2020-12-01T20:06:09Z,12/01/20 15:06,4984233,0.186,0.0,969,23.4,41.3,75,0.0
2020-12-01T20:07:09Z,12/01/20 15:07,4984238,0.23399999999999999,0.0,973,23.4,41.3,75,0.0
2020-12-01T20:08:08Z,12/01/20 15:08,4984243,0.22200000000000003,0.0,983,23.4,41.3,75,0.0
2020-12-01T20:09:08Z,12/01/20 15:09,4984248,0.246,0.0,971,23.4,41.3,75,0.0
2020-12-01T20:10:08Z,12/01/20 15:10,4984253,0.11699999999999999,0.0,971,23.4,41.3,75,0.0
2020-12-01T20:11:08Z,12/01/20 15:11,4984258,0.273,0.0,969,23.3,41.3,75,0.0
2020-12-01T20:12:08Z,12/01/20 15:12,4984263,0.18,0.0,967,23.3,41.4,75,0.0
2020-12-01T20:13:08Z,12/01/20 15:13,4984268,0.22400000000000003,0.001,973,23.4,41.3,75,0.0
2020-12-01T20:14:08Z,12/01/20 15:14,4984273,0.18,0.0,969,23.3,41.3,75,0.0
2020-12-01T20:15:08Z,12/01/20 15:15,4984278,0.141,0.0,959,23.3,41.4,75,0.0
2020-12-01T20:16:09Z,12/01/20 15:16,4984283,0.20099999999999998,0.0,959,23.3,41.3,75,0.0
2020-12-01T20:17:09Z,12/01/20 15:17,4984288,0.22799999999999998,0.0,964,23.3,41.3,75,0.0
2020-12-01T20:18:08Z,12/01/20 15:18,4984293,0.20400000000000001,0.0,953,23.3,41.3,75,0.0
2020-12-01T20:19:08Z,12/01/20 15:19,4984298,0.263,0.001,969,23.3,41.3,75,0.0
2020-12-01T20:20:08Z,12/01/20 15:20,4984303,0.16499999999999998,0.0,952,23.3,41.3,75,0.0
2020-12-01T20:21:08Z,12/01/20 15:21,4984308,0.375,0.0,957,23.3,41.3,75,0.0
2020-12-01T20:22:08Z,12/01/20 15:22,4984313,0.264,0.0,955,23.3,41.3,75,0.0
2020-12-01T20:23:08Z,12/01/20 15:23,4984318,0.362,0.001,960,23.3,41.3,75,0.0
2020-12-01T20:24:08Z,12/01/20 15:24,4984323,0.339,0.0,959,23.3,41.3,75,0.0
2020-12-01T20:25:08Z,12/01/20 15:25,4984328,0.369,0.0,950,23.3,41.3,75,0.0
2020-12-01T20:26:08Z,12/01/20 15:26,4984333,0.44699999999999995,0.0,960,23.3,41.3,75,0.0
2020-12-01T20:27:09Z,12/01/20 15:27,4984338,0.6559999999999999,0.001,962,23.3,41.3,75,0.0
2020-12-01T20:28:08Z,12/01/20 15:28,4984343,1.035,0.0,953,23.3,41.3,75,0.0
2020-12-01T20:29:08Z,12/01/20 15:29,4984348,1.221,0.0,955,23.3,41.3,75,0.0
2020-12-01T20:30:08Z,12/01/20 15:30,4984354,1.0230000000000001,0.0,961,23.3,41.3,75,0.0
2020-12-01T20:31:08Z,12/01/20 15:31,4984358,1.068,0.0,954,23.3,41.3,75,0.0
2020-12-01T20:32:08Z,12/01/20 15:32,4984363,1.389,0.0,958,23.3,41.3,75,0.0
2020-12-01T20:33:08Z,12/01/20 15:33,4984368,1.214,0.001,958,23.3,41.3,75,0.0
2020-12-01T20:34:08Z,12/01/20 15:34,4984373,1.374,0.0,958,23.3,41.3,75,0.0
2020-12-01T20:35:08Z,12/01/20 15:35,4984378,0.9179999999999999,0.0,954,23.3,41.3,75,0.0
2020-12-01T20:36:08Z,12/01/20 15:36,4984383,0.9810000000000001,0.0,954,23.3,41.3,75,0.0
2020-12-01T20:37:08Z,12/01/20 15:37,4984389,0.849,0.0,947,23.3,41.3,75,0.0
2020-12-01T20:38:08Z,12/01/20 15:38,4984393,0.441,0.0,945,23.3,41.3,75,0.0
2020-12-01T20:39:08Z,12/01/20 15:39,4984399,0.534,0.0,958,23.3,41.3,75,0.0
2020-12-01T20:40:08Z,12/01/20 15:40,4984403,0.351,0.0,958,23.3,41.3,75,0.0
2020-12-01T20:41:08Z,12/01/20 15:41,4984408,0.288,0.0,951,23.3,41.3,75,0.0
2020-12-01T20:42:08Z,12/01/20 15:42,4984413,0.306,0.0,954,23.3,41.3,75,0.0
2020-12-01T20:43:08Z,12/01/20 15:43,4984418,0.281,0.001,952,23.3,41.3,75,0.0
2020-12-01T20:44:08Z,12/01/20 15:44,4984423,0.36,0.0,945,23.3,41.3,75,0.0
2020-12-01T20:45:08Z,12/01/20 15:45,4984428,0.387,0.0,944,23.3,41.3,75,0.0
2020-12-01T20:46:08Z,12/01/20 15:46,4984433,0.227,0.001,954,23.3,41.3,75,0.0
2020-12-01T20:47:08Z,12/01/20 15:47,4984438,0.22799999999999998,0.0,954,23.3,41.3,75,0.0
2020-12-01T20:48:09Z,12/01/20 15:48,4984444,0.174,0.0,937,23.3,41.3,75,0.0
2020-12-01T20:49:08Z,12/01/20 15:49,4984448,0.261,0.0,942,23.3,41.3,75,0.0
2020-12-01T20:50:08Z,12/01/20 15:50,4984453,0.306,0.0,940,23.3,41.3,75,0.0
2020-12-01T20:51:08Z,12/01/20 15:51,4984458,0.315,0.0,949,23.3,41.3,75,0.0
2020-12-01T20:52:08Z,12/01/20 15:52,4984463,0.557,0.001,949,23.3,41.3,75,0.0
2020-12-01T20:53:08Z,12/01/20 15:53,4984468,0.599,0.001,944,23.3,41.3,75,0.0
2020-12-01T20:54:08Z,12/01/20 15:54,4984473,0.639,0.0,951,23.3,41.3,75,0.0
2020-12-01T20:55:08Z,12/01/20 15:55,4984478,0.588,0.0,944,23.3,41.3,75,0.0
2020-12-01T20:56:08Z,12/01/20 15:56,4984483,0.8099999999999999,0.0,933,23.3,41.3,75,0.0
2020-12-01T20:57:08Z,12/01/20 15:57,4984488,0.6719999999999999,0.0,939,23.3,41.3,75,0.0
2020-12-01T20:58:08Z,12/01/20 15:58,4984493,0.8460000000000001,0.0,949,23.3,41.3,75,0.0
2020-12-01T20:59:08Z,12/01/20 15:59,4984498,0.765,0.0,944,23.3,41.3,75,0.0
2020-12-01T21:00:08Z,12/01/20 16:00,4984503,0.834,0.0,942,23.3,41.3,75,0.0
2020-12-01T21:01:08Z,12/01/20 16:01,4984508,0.882,0.0,939,23.3,41.3,75,0.0
2020-12-01T21:02:08Z,12/01/20 16:02,4984513,0.75,0.0,956,23.3,41.3,75,0.0
2020-12-01T21:03:08Z,12/01/20 16:03,4984518,0.914,0.001,968,23.3,41.3,75,0.0
2020-12-01T21:04:08Z,12/01/20 16:04,4984523,0.828,0.0,966,23.3,41.3,75,0.0
2020-12-01T21:05:08Z,12/01/20 16:05,4984528,0.515,0.001,979,23.3,41.3,75,0.0
2020-12-01T21:06:08Z,12/01/20 16:06,4984533,0.546,0.0,990,23.3,41.4,75,0.0
2020-12-01T21:07:08Z,12/01/20 16:07,4984538,0.36,0.0,1006,23.3,41.4,75,0.0
2020-12-01T21:08:08Z,12/01/20 16:08,4984543,0.32999999999999996,0.0,1013,23.3,41.4,75,0.0
2020-12-01T21:09:08Z,12/01/20 16:09,4984548,0.189,0.0,1032,23.3,41.4,75,0.0
2020-12-01T21:10:08Z,12/01/20 16:10,4984553,0.306,0.0,1022,23.3,41.5,75,0.0
2020-12-01T21:11:08Z,12/01/20 16:11,4984558,0.173,0.001,1040,23.3,41.5,75,0.0
2020-12-01T21:12:08Z,12/01/20 16:12,4984563,0.186,0.0,1050,23.3,41.6,75,0.0
2020-12-01T21:13:08Z,12/01/20 16:13,4984568,0.16799999999999998,0.0,1045,23.4,41.6,75,0.0
2020-12-01T21:14:08Z,12/01/20 16:14,4984573,0.129,0.0,1072,23.4,41.6,75,0.0
2020-12-01T21:15:08Z,12/01/20 16:15,4984578,0.16499999999999998,0.0,1075,23.4,41.6,75,0.0
2020-12-01T21:16:08Z,12/01/20 16:16,4984583,0.174,0.0,1088,23.4,41.7,75,0.0
2020-12-01T21:17:08Z,12/01/20 16:17,4984588,0.198,0.0,1081,23.4,41.7,75,0.0
2020-12-01T21:18:08Z,12/01/20 16:18,4984593,0.183,0.0,1086,23.4,41.7,75,0.0
2020-12-01T21:19:08Z,12/01/20 16:19,4984598,0.257,0.001,1092,23.4,41.7,75,0.0
2020-12-01T21:20:08Z,12/01/20 16:20,4984604,0.258,0.0,1098,23.4,41.7,75,0.0
2020-12-01T21:21:08Z,12/01/20 16:21,4984608,0.47300000000000003,0.001,1105,23.4,41.7,75,0.0
2020-12-01T21:22:08Z,12/01/20 16:22,4984613,0.396,0.0,1107,23.4,41.7,75,0.0
2020-12-01T21:23:08Z,12/01/20 16:23,4984618,0.5549999999999999,0.0,1110,23.5,41.7,75,0.0
2020-12-01T21:24:08Z,12/01/20 16:24,4984623,0.6900000000000001,0.0,1110,23.5,41.7,75,0.0
2020-12-01T21:25:08Z,12/01/20 16:25,4984628,0.483,0.0,1110,23.5,41.7,75,0.0
2020-12-01T21:26:08Z,12/01/20 16:26,4984633,0.588,0.0,1101,23.5,41.7,75,0.0
2020-12-01T21:27:08Z,12/01/20 16:27,4984638,0.47400000000000003,0.0,1112,23.5,41.7,75,0.0
2020-12-01T21:28:08Z,12/01/20 16:28,4984643,0.693,0.0,1121,23.5,41.7,75,0.0
2020-12-01T21:29:08Z,12/01/20 16:29,4984648,0.8220000000000001,0.0,1125,23.5,41.7,75,0.0
2020-12-01T21:30:08Z,12/01/20 16:30,4984653,0.663,0.0,1120,23.5,41.7,75,0.0
2020-12-01T21:31:08Z,12/01/20 16:31,4984658,0.585,0.0,1118,23.5,41.7,75,0.0
2020-12-01T21:32:08Z,12/01/20 16:32,4984663,0.609,0.0,1131,23.5,41.7,75,0.0
2020-12-01T21:33:08Z,12/01/20 16:33,4984669,0.597,0.0,1121,23.5,41.7,75,0.0
2020-12-01T21:34:08Z,12/01/20 16:34,4984674,0.6,0.0,1122,23.5,41.7,75,0.0
2020-12-01T21:35:08Z,12/01/20 16:35,4984678,0.381,0.0,1130,23.6,41.7,75,0.0
2020-12-01T21:36:08Z,12/01/20 16:36,4984683,0.259,0.002,1121,23.6,41.7,75,0.0
2020-12-01T21:37:08Z,12/01/20 16:37,4984688,0.41100000000000003,0.0,1119,23.6,41.7,75,0.0
2020-12-01T21:38:08Z,12/01/20 16:38,4984693,0.21000000000000002,0.0,1121,23.6,41.7,75,0.0
2020-12-01T21:39:08Z,12/01/20 16:39,4984698,0.248,0.001,1121,23.6,41.7,75,0.0
2020-12-01T21:40:08Z,12/01/20 16:40,4984703,0.185,0.001,1121,23.6,41.6,75,0.0
2020-12-01T21:41:08Z,12/01/20 16:41,4984708,0.264,0.0,1121,23.6,41.6,75,0.0
2020-12-01T21:42:08Z,12/01/20 16:42,4984713,0.191,0.001,1117,23.6,41.6,75,0.0
2020-12-01T21:43:08Z,12/01/20 16:43,4984718,0.173,0.001,1119,23.6,41.6,75,0.0
2020-12-01T21:44:08Z,12/01/20 16:44,4984723,0.162,0.0,1121,23.6,41.6,75,0.0
2020-12-01T21:45:08Z,12/01/20 16:45,4984728,0.195,0.0,1110,23.6,41.6,75,0.0
2020-12-01T21:46:08Z,12/01/20 16:46,4984734,0.22200000000000003,0.0,1117,23.6,41.6,75,0.0
2020-12-01T21:47:08Z,12/01/20 16:47,4984738,0.144,0.0,1115,23.6,41.6,75,0.0
2020-12-01T21:48:08Z,12/01/20 16:48,4984743,0.10200000000000001,0.0,1106,23.6,41.6,75,0.0
2020-12-01T21:49:08Z,12/01/20 16:49,4984748,0.16699999999999998,0.001,1111,23.6,41.6,75,0.0
2020-12-01T21:50:08Z,12/01/20 16:50,4984753,0.209,0.001,1108,23.6,41.6,75,0.0
2020-12-01T21:51:08Z,12/01/20 16:51,4984758,0.42300000000000004,0.0,1111,23.6,41.6,75,0.0
2020-12-01T21:52:08Z,12/01/20 16:52,4984763,0.20400000000000001,0.0,1111,23.6,41.6,75,0.0
2020-12-01T21:53:08Z,12/01/20 16:53,4984768,0.23399999999999999,0.0,1099,23.6,41.6,75,0.0
2020-12-01T21:54:08Z,12/01/20 16:54,4984773,0.40700000000000003,0.001,1110,23.7,41.5,75,0.0
2020-12-01T21:55:08Z,12/01/20 16:55,4984778,0.366,0.0,1106,23.7,41.5,75,0.0
2020-12-01T21:56:08Z,12/01/20 16:56,4984783,0.525,0.0,1104,23.7,41.5,75,0.0
2020-12-01T21:57:08Z,12/01/20 16:57,4984788,0.417,0.0,1104,23.7,41.5,75,0.0
2020-12-01T21:58:08Z,12/01/20 16:58,4984793,0.381,0.0,1099,23.7,41.5,75,0.0
2020-12-01T21:59:08Z,12/01/20 16:59,4984799,0.5549999999999999,0.0,1110,23.7,41.5,75,0.0
2020-12-01T22:00:08Z,12/01/20 17:00,4984803,0.40499999999999997,0.0,1104,23.7,41.5,75,0.0
2020-12-01T22:01:08Z,12/01/20 17:01,4984808,0.369,0.0,1104,23.7,41.5,75,0.0
2020-12-01T22:02:08Z,12/01/20 17:02,4984813,0.483,0.0,1104,23.7,41.5,75,0.0
2020-12-01T22:03:08Z,12/01/20 17:03,4984818,0.5599999999999999,0.001,1104,23.7,41.5,75,0.0
2020-12-01T22:04:08Z,12/01/20 17:04,4984823,0.40499999999999997,0.0,1089,23.7,41.5,75,0.0
2020-12-01T22:05:08Z,12/01/20 17:05,4984828,0.351,0.0,1093,23.7,41.4,75,0.0
2020-12-01T22:06:08Z,12/01/20 17:06,4984833,0.327,0.0,1093,23.7,41.4,75,0.0
2020-12-01T22:07:08Z,12/01/20 17:07,4984838,0.33199999999999996,0.001,1082,23.7,41.4,75,0.0
2020-12-01T22:08:08Z,12/01/20 17:08,4984843,0.315,0.003,1095,23.7,41.4,75,0.0
2020-12-01T22:09:08Z,12/01/20 17:09,4984848,0.16799999999999998,0.0,1080,23.7,41.4,75,0.0
2020-12-01T22:10:08Z,12/01/20 17:10,4984853,0.273,0.0,1076,23.7,41.4,75,0.0
2020-12-01T22:11:08Z,12/01/20 17:11,4984858,0.24900000000000003,0.0,1067,23.7,41.4,75,0.0
2020-12-01T22:12:08Z,12/01/20 17:12,4984863,0.233,0.001,1067,23.7,41.4,75,0.0
2020-12-01T22:13:08Z,12/01/20 17:13,4984868,0.20299999999999999,0.001,1071,23.7,41.4,75,0.0
2020-12-01T22:14:08Z,12/01/20 17:14,4984873,0.27,0.0,1067,23.7,41.4,75,0.0
2020-12-01T22:15:08Z,12/01/20 17:15,4984878,0.24,0.0,1067,23.7,41.4,75,0.0
2020-12-01T22:16:08Z,12/01/20 17:16,4984883,0.23900000000000002,0.001,1067,23.7,41.4,75,0.0
2020-12-01T22:17:08Z,12/01/20 17:17,4984888,0.246,0.0,1073,23.7,41.4,75,0.0
2020-12-01T22:18:08Z,12/01/20 17:18,4984893,0.21400000000000002,0.002,1075,23.7,41.4,75,0.0
2020-12-01T22:19:08Z,12/01/20 17:19,4984898,0.392,0.001,1067,23.7,41.4,75,0.0
2020-12-01T22:20:08Z,12/01/20 17:20,4984903,0.251,0.001,1062,23.7,41.3,75,0.0
2020-12-01T22:21:08Z,12/01/20 17:21,4984908,0.43499999999999994,0.0,1065,23.7,41.3,75,0.0
2020-12-01T22:22:08Z,12/01/20 17:22,4984913,0.36,0.0,1069,23.7,41.3,75,0.0
2020-12-01T22:23:08Z,12/01/20 17:23,4984918,0.375,0.0,1069,23.7,41.3,75,0.0
2020-12-01T22:24:08Z,12/01/20 17:24,4984923,0.362,0.001,1062,23.7,41.3,75,0.0
2020-12-01T22:25:08Z,12/01/20 17:25,4984928,0.40199999999999997,0.0,1069,23.7,41.3,75,0.0
2020-12-01T22:26:08Z,12/01/20 17:26,4984933,0.425,0.001,1064,23.7,41.3,75,0.0
2020-12-01T22:27:08Z,12/01/20 17:27,4984938,0.47400000000000003,0.0,1067,23.7,41.3,75,0.0
2020-12-01T22:28:08Z,12/01/20 17:28,4984943,0.33799999999999997,0.001,1075,23.7,41.3,75,0.0
2020-12-01T22:29:08Z,12/01/20 17:29,4984948,0.544,0.002,1069,23.7,41.3,75,0.0
2020-12-01T22:30:08Z,12/01/20 17:30,4984953,0.44299999999999995,0.001,1064,23.7,41.3,75,0.0
2020-12-01T22:31:08Z,12/01/20 17:31,4984958,0.465,0.0,1062,23.7,41.3,75,0.0
2020-12-01T22:32:08Z,12/01/20 17:32,4984963,0.489,0.0,1062,23.7,41.3,75,0.0
2020-12-01T22:33:08Z,12/01/20 17:33,4984968,0.35,0.001,1051,23.7,41.3,75,0.0
2020-12-01T22:34:08Z,12/01/20 17:34,4984973,0.43200000000000005,0.0,1051,23.7,41.3,75,0.0
2020-12-01T22:35:08Z,12/01/20 17:35,4984978,0.492,0.0,1062,23.7,41.3,75,0.0
2020-12-01T22:36:08Z,12/01/20 17:36,4984983,0.45499999999999996,0.001,1041,23.7,41.3,75,0.0
2020-12-01T22:37:08Z,12/01/20 17:37,4984988,0.507,0.0,1051,23.7,41.3,75,0.0
2020-12-01T22:38:08Z,12/01/20 17:38,4984993,0.279,0.0,1042,23.7,41.3,75,0.0